Location: Hawks Ness
(60.2333°N, 1.1667°W)
Time: 21:03:12
(UTC+00:00)

Cosmos 1697 Rocket - Pass Details

Date: 22 October 2019
Orbit: 833 x 843 km, 71.0° (Epoch: 20 November)

Event Time Altitude Azimuth Distance (km) Brightness Sun altitude
Exits shadow 03:53:09 23° 318° (NW) 1,746 4.1 -23.6°
Maximum altitude 03:55:16 29° 353° (N) 1,525 4.1 -23.4°
Drops below altitude 10° 04:00:09 10° 52° (NE) 2,471 6.1 -22.8°
Sets 04:02:57 0° 64° (ENE) 3,404 7.3 -22.5°
